M I D A S
Marine Information and Data Acquisition System
Tripno 374 of the Zeeleeuw from 2002-12-23 07:53:17 to 2002-12-23 15:56:21
Back to CruiseResearch ActivitiesStationsMapUnderway DataData graphs

EquipmentUnitsComments
TimeDGPSUTC
LatitudeDGPSDM.mWGS84
LongitudeDGPSDM.mWGS84
SpeedMeteo Stationm/sRelative wind speed
DirectionMeteo StationdegRelative wind direction
TemperatureMeteo Stationdeg CelciusAir temperature
PressureMeteo StationPaAtmospheric pressure
HumidityMeteo Station%Relative humidity
Missing or incorrect values are displayed as -999
Metereological data collected by the RV Zeeleeuw from 2002-12-23 07:53:17 to 2002-12-23 15:56:21
Time Latitude Longitude Speed Direction Temperature Pressure Humidity
2002-12-23 07:54 51°13.633 2°55.999 0.5 77 8.8 101220 91
2002-12-23 07:55 51°13.665 2°55.843 1.2 75 8.8 101220 91
2002-12-23 07:56 51°13.674 2°55.77 2.7 135 8.7 101220 91
2002-12-23 07:57 51°13.707 2°55.755 0.4 128 8.7 101220 91
2002-12-23 07:58 51°13.793 2°55.667 1.3 207 8.7 101220 91
2002-12-23 07:59 51°13.915 2°55.571 2.2 221 8.7 101210 91
2002-12-23 08:00 51°14.049 2°55.473 3 228 8.7 101210 91
2002-12-23 08:01 51°14.216 2°55.322 4.1 232 8.6 101210 91
2002-12-23 08:02 51°14.358 2°55.074 4.9 241 8.6 101210 90
2002-12-23 08:03 51°14.532 2°54.84 4.4 238 8.6 101220 91
2002-12-23 08:04 51°14.743 2°54.751 3.7 216 8.6 101220 91
2002-12-23 08:05 51°14.95 2°54.678 3.4 229 8.6 101220 91
2002-12-23 08:06 51°15.152 2°54.626 3.6 199 8.6 101220 91
2002-12-23 08:07 51°15.35 2°54.61 2.4 219 8.6 101210 90
2002-12-23 08:08 51°15.556 2°54.532 3.6 208 8.5 101210 90
2002-12-23 08:09 51°15.764 2°54.455 3.4 201 8.4 101210 90
2002-12-23 08:10 51°15.963 2°54.47 3.5 194 8.4 101200 90
2002-12-23 08:11 51°16.121 2°54.485 3 162 8.3 101210 90
2002-12-23 08:12 51°16.194 2°54.418 1.6 348 8.2 101200 90
2002-12-23 08:13 51°16.21 2°54.309 4.3 42 8.2 101210 90
2002-12-23 08:14 51°16.225 2°54.267 2.4 99 8.4 101210 91
2002-12-23 08:15 51°16.264 2°54.258 3.9 116 8.4 101200 90
2002-12-23 08:16 51°16.267 2°54.24 4 128 8.4 101210 90
2002-12-23 08:17 51°16.271 2°54.234 3.9 141 8.3 101200 90
2002-12-23 08:18 51°16.271 2°54.23 4.3 151 8.2 101200 90
2002-12-23 08:19 51°16.268 2°54.225 3.8 158 8.1 101200 90
2002-12-23 08:20 51°16.264 2°54.222 4.3 168 8 101200 90
2002-12-23 08:21 51°16.258 2°54.221 4.4 174 8 101190 91
2002-12-23 08:22 51°16.251 2°54.221 4.1 180 8.1 101190 91
2002-12-23 08:23 51°16.244 2°54.219 4.1 179 8.1 101190 91
2002-12-23 08:24 51°16.238 2°54.217 4.4 179 8.1 101190 91
2002-12-23 08:25 51°16.238 2°54.225 5.1 167 8.1 101190 91
2002-12-23 08:26 51°16.306 2°54.207 1.5 68 8.1 101190 91
2002-12-23 08:27 51°16.4 2°53.967 2.2 256 8.1 101190 91
2002-12-23 08:28 51°16.538 2°53.698 3 239 8 101200 90
2002-12-23 08:29 51°16.69 2°53.448 2.5 238 7.9 101200 90
2002-12-23 08:30 51°16.841 2°53.201 2.6 237 7.9 101200 91
2002-12-23 08:31 51°16.981 2°52.964 2.5 241 7.8 101200 90
2002-12-23 08:32 51°17.133 2°52.724 2.9 231 7.7 101200 90
2002-12-23 08:33 51°17.302 2°52.483 2.9 241 7.7 101200 90
2002-12-23 08:34 51°17.454 2°52.242 2.2 231 7.6 101200 90
2002-12-23 08:35 51°17.606 2°52.003 2.6 233 7.6 101190 91
2002-12-23 08:36 51°17.756 2°51.766 2.6 237 7.5 101190 91
2002-12-23 08:37 51°17.909 2°51.531 2.4 241 7.5 101190 91
2002-12-23 08:38 51°18.07 2°51.309 1.9 238 7.5 101180 91
2002-12-23 08:39 51°18.229 2°51.093 0.8 218 7.5 101180 91
2002-12-23 08:40 51°18.349 2°50.991 2.9 119 7.4 101180 91
2002-12-23 08:41 51°18.438 2°50.971 3.2 112 7.4 101180 91
2002-12-23 08:42 51°18.476 2°50.958 4.6 135 7.4 101180 91
2002-12-23 08:43 51°18.486 2°50.959 4.3 145 7.4 101180 92
2002-12-23 08:44 51°18.493 2°50.965 4.4 148 7.5 101180 92
2002-12-23 08:45 51°18.5 2°50.971 4.8 147 7.4 101180 92
2002-12-23 08:46 51°18.507 2°50.977 4.6 143 7.4 101180 92
2002-12-23 08:47 51°18.507 2°50.973 4.8 147 7.4 101170 92
2002-12-23 08:48 51°18.505 2°50.966 4.7 143 7.4 101180 92
2002-12-23 08:49 51°18.501 2°50.955 4.8 145 7.4 101180 92
2002-12-23 08:50 51°18.495 2°50.945 3.9 148 7.4 101170 92
2002-12-23 08:51 51°18.489 2°50.932 3.5 154 7.4 101180 92
2002-12-23 08:52 51°18.483 2°50.919 4.3 155 7.4 101180 92
2002-12-23 08:53 51°18.474 2°50.904 3.8 150 7.3 101170 92
2002-12-23 08:54 51°18.466 2°50.889 4.5 153 7.3 101180 92
2002-12-23 08:55 51°18.459 2°50.876 5 148 7.3 101180 92
2002-12-23 08:56 51°18.452 2°50.865 4.6 152 7.3 101180 93
2002-12-23 08:57 51°18.444 2°50.855 4.6 157 7.4 101170 93
2002-12-23 08:58 51°18.436 2°50.847 4.5 164 7.4 101180 93
2002-12-23 08:59 51°18.426 2°50.841 4.1 169 7.4 101180 93
2002-12-23 09:00 51°18.418 2°50.908 6.7 192 7.3 101180 92
2002-12-23 09:01 51°18.487 2°51.173 8.9 201 7.3 101160 93
2002-12-23 09:02 51°18.557 2°51.49 10.1 204 7.4 101160 93
2002-12-23 09:03 51°18.619 2°51.805 10.2 206 7.5 101170 93
2002-12-23 09:04 51°18.681 2°52.127 10.5 202 7.4 101170 93
2002-12-23 09:05 51°18.745 2°52.446 9.7 200 7.4 101170 93
2002-12-23 09:06 51°18.808 2°52.773 9.7 202 7.4 101180 93
2002-12-23 09:07 51°18.872 2°53.088 9.4 208 7.5 101180 93
2002-12-23 09:08 51°18.933 2°53.41 9.5 203 7.4 101180 93
2002-12-23 09:09 51°18.997 2°53.733 9.1 202 7.3 101180 93
2002-12-23 09:10 51°19.065 2°54.053 9.6 201 7.3 101180 93
2002-12-23 09:11 51°19.13 2°54.372 9.2 200 7.4 101180 93
2002-12-23 09:12 51°19.185 2°54.696 9.4 203 7.4 101180 93
2002-12-23 09:13 51°19.247 2°55.019 9.9 201 7.4 101180 93
2002-12-23 09:14 51°19.312 2°55.338 9.9 203 7.4 101190 93
2002-12-23 09:15 51°19.374 2°55.658 9.2 202 7.3 101180 93
2002-12-23 09:16 51°19.439 2°55.976 8.7 201 7.4 101190 93
2002-12-23 09:17 51°19.505 2°56.294 8.3 203 7.4 101190 93
2002-12-23 09:18 51°19.572 2°56.609 8.3 207 7.4 101200 93
2002-12-23 09:19 51°19.639 2°56.93 7.9 211 7.3 101200 93
2002-12-23 09:20 51°19.709 2°57.236 9.3 205 7.2 101200 93
2002-12-23 09:21 51°19.774 2°57.551 9.9 203 7.4 101190 93
2002-12-23 09:22 51°19.839 2°57.868 9.2 201 7.4 101190 93
2002-12-23 09:23 51°19.904 2°58.171 9.9 202 7.5 101190 94
2002-12-23 09:24 51°19.978 2°58.472 9 205 7.4 101190 93
2002-12-23 09:25 51°20.053 2°58.769 8.7 202 7.3 101190 93
2002-12-23 09:26 51°20.13 2°59.062 8.5 204 7.4 101190 93
2002-12-23 09:27 51°20.205 2°59.361 8.1 204 7.4 101200 93
2002-12-23 09:28 51°20.279 2°59.648 8.2 207 7.3 101200 93
2002-12-23 09:29 51°20.357 2°59.944 9 204 7.2 101200 93
2002-12-23 09:30 51°20.437 3°0.232 9.3 202 7.2 101190 93
2002-12-23 09:31 51°20.514 3°0.515 8.9 201 7.2 101190 93
2002-12-23 09:32 51°20.591 3°0.812 8.4 205 7.4 101190 94
2002-12-23 09:33 51°20.671 3°1.094 9.9 199 7.4 101190 93
2002-12-23 09:34 51°20.745 3°1.388 9.4 203 7.5 101180 94
2002-12-23 09:35 51°20.823 3°1.677 9.8 204 7.6 101180 94
2002-12-23 09:36 51°20.901 3°1.964 9.1 206 7.6 101180 93
2002-12-23 09:37 51°20.982 3°2.259 9.5 205 7.6 101180 93
2002-12-23 09:38 51°21.06 3°2.552 9.3 202 7.5 101180 93
2002-12-23 09:39 51°21.135 3°2.841 8.8 211 7.4 101190 93
2002-12-23 09:40 51°21.21 3°3.134 9 205 7.2 101180 93
2002-12-23 09:41 51°21.287 3°3.425 9.2 206 7.3 101180 93
2002-12-23 09:42 51°21.363 3°3.728 9.2 204 7.3 101180 93
2002-12-23 09:43 51°21.443 3°4.024 9.6 206 7.3 101180 94
2002-12-23 09:44 51°21.494 3°4.328 9.9 209 7.3 101180 93
2002-12-23 09:45 51°21.543 3°4.633 10.1 208 7.3 101180 93
2002-12-23 09:46 51°21.591 3°4.945 10.3 211 7.3 101170 94
2002-12-23 09:47 51°21.638 3°5.257 10.8 206 7.2 101180 93
2002-12-23 09:48 51°21.692 3°5.572 10.3 207 7.4 101170 94
2002-12-23 09:49 51°21.742 3°5.894 10.1 207 7.4 101180 94
2002-12-23 09:50 51°21.795 3°6.215 10 206 7.4 101170 94
2002-12-23 09:51 51°21.841 3°6.539 10.1 206 7.4 101180 94
2002-12-23 09:52 51°21.887 3°6.861 9.6 204 7.3 101180 94
2002-12-23 09:53 51°21.933 3°7.182 9.9 210 7.4 101180 94
2002-12-23 09:54 51°21.976 3°7.506 10.9 205 7.4 101180 94
2002-12-23 09:55 51°22.019 3°7.821 10.1 209 7.5 101170 94
2002-12-23 09:56 51°22.069 3°8.143 10.4 210 7.5 101170 94
2002-12-23 09:57 51°22.116 3°8.468 10 209 7.7 101170 94
2002-12-23 09:58 51°22.163 3°8.79 9.3 213 7.8 101160 94
2002-12-23 09:59 51°22.209 3°9.116 9.3 216 7.9 101170 94
2002-12-23 10:00 51°22.255 3°9.44 9.6 215 7.9 101170 94
2002-12-23 10:01 51°22.305 3°9.77 11.2 214 7.9 101170 94
2002-12-23 10:02 51°22.344 3°10.093 11.3 211 7.9 101160 93
2002-12-23 10:03 51°22.388 3°10.424 11.1 211 7.9 101160 93
2002-12-23 10:04 51°22.432 3°10.764 10.1 217 8 101170 94
2002-12-23 10:05 51°22.461 3°11.097 10.8 216 7.9 101170 93
2002-12-23 10:06 51°22.493 3°11.43 11.2 215 7.9 101160 93
2002-12-23 10:07 51°22.524 3°11.769 11.3 212 7.9 101160 93
2002-12-23 10:08 51°22.557 3°12.098 11 212 7.9 101160 93
2002-12-23 10:09 51°22.589 3°12.437 11.6 216 7.7 101160 93
2002-12-23 10:10 51°22.618 3°12.756 10 212 7.7 101160 93
2002-12-23 10:11 51°22.65 3°12.963 7.4 205 7.8 101170 93
2002-12-23 10:12 51°22.64 3°13.094 6.9 216 7.9 101180 93
2002-12-23 10:13 51°22.616 3°13.168 5.5 218 7.8 101180 93
2002-12-23 10:14 51°22.608 3°13.17 5 204 7.7 101190 93
2002-12-23 10:15 51°22.606 3°13.163 5.3 179 7.8 101180 93
2002-12-23 10:16 51°22.609 3°13.159 5.2 155 7.8 101180 93
2002-12-23 10:17 51°22.617 3°13.155 4.9 144 7.8 101180 93
2002-12-23 10:18 51°22.63 3°13.152 4.5 150 7.9 101180 93
2002-12-23 10:19 51°22.642 3°13.15 4.5 158 7.8 101180 93
2002-12-23 10:20 51°22.652 3°13.151 4.8 169 7.9 101180 93
2002-12-23 10:21 51°22.661 3°13.154 4.7 174 7.9 101170 93
2002-12-23 10:22 51°22.666 3°13.159 4.4 183 7.9 101170 93
2002-12-23 10:23 51°22.672 3°13.164 4.1 184 7.9 101170 93
2002-12-23 10:24 51°22.736 3°13.258 6 182 8 101160 93
2002-12-23 10:25 51°22.89 3°13.431 8.5 198 7.9 101160 93
2002-12-23 10:26 51°23.043 3°13.659 9.3 201 7.8 101160 93
2002-12-23 10:27 51°23.196 3°13.89 9.3 204 7.7 101160 93
2002-12-23 10:28 51°23.357 3°14.128 9.3 201 7.6 101150 93
2002-12-23 10:29 51°23.519 3°14.361 8.9 195 7.6 101150 93
2002-12-23 10:30 51°23.686 3°14.593 9.4 205 7.5 101150 93
2002-12-23 10:31 51°23.85 3°14.826 10.3 200 7.4 101150 93
2002-12-23 10:32 51°24.015 3°15.052 9.7 202 7.5 101150 93
2002-12-23 10:33 51°24.174 3°15.269 9.8 200 7.4 101150 93
2002-12-23 10:34 51°24.342 3°15.5 9.9 199 7.4 101150 94
2002-12-23 10:35 51°24.512 3°15.743 9.6 200 7.5 101140 94
2002-12-23 10:36 51°24.684 3°15.993 10.1 201 7.5 101150 94
2002-12-23 10:37 51°24.849 3°16.233 9.4 195 7.3 101150 94
2002-12-23 10:38 51°25.013 3°16.499 9.4 195 7.4 101140 94
2002-12-23 10:39 51°25.169 3°16.741 9.2 198 7.4 101130 94
2002-12-23 10:40 51°25.328 3°16.997 9.3 200 7.4 101140 94
2002-12-23 10:41 51°25.485 3°17.247 9.7 196 7.3 101130 94
2002-12-23 10:42 51°25.637 3°17.5 8.9 200 7.3 101140 94
2002-12-23 10:43 51°25.742 3°17.679 6.8 177 7.1 101150 94
2002-12-23 10:44 51°25.819 3°17.776 5.6 179 7.1 101150 94
2002-12-23 10:45 51°25.87 3°17.874 5.5 155 7 101140 94
2002-12-23 10:46 51°25.892 3°17.912 5.1 158 7 101150 94
2002-12-23 10:47 51°25.891 3°17.93 5.3 160 7 101150 94
2002-12-23 10:48 51°25.89 3°17.948 5.8 163 6.9 101140 94
2002-12-23 10:49 51°25.89 3°17.966 6 166 7 101140 94
2002-12-23 10:50 51°25.889 3°17.987 5.3 167 7 101130 94
2002-12-23 10:51 51°25.888 3°18.004 5.7 164 7 101140 94
2002-12-23 10:52 51°25.932 3°18.023 3 96 7 101130 94
2002-12-23 10:53 51°25.938 3°17.813 5 288 7.1 101140 94
2002-12-23 10:54 51°25.901 3°17.496 4.9 282 7.2 101140 94
2002-12-23 10:55 51°25.847 3°17.151 5.6 281 7.2 101140 94
2002-12-23 10:56 51°25.839 3°16.807 4.4 281 7.2 101140 94
2002-12-23 10:57 51°25.777 3°16.476 6.7 279 7.2 101130 94
2002-12-23 10:58 51°25.699 3°16.155 4.4 271 7.1 101130 94
2002-12-23 10:59 51°25.69 3°15.808 5.3 276 7.1 101130 94
2002-12-23 11:00 51°25.639 3°15.468 5.1 280 7.1 101130 94
2002-12-23 11:01 51°25.624 3°15.12 5.8 280 7.1 101130 94
2002-12-23 11:02 51°25.586 3°14.727 6.1 278 7.1 101130 94
2002-12-23 11:03 51°25.569 3°14.377 6.6 276 7.1 101130 94
2002-12-23 11:04 51°25.536 3°14.024 5.6 280 7.1 101130 94
2002-12-23 11:05 51°25.509 3°13.67 6.4 283 7.1 101120 94
2002-12-23 11:06 51°25.485 3°13.313 6.3 283 7.1 101120 94
2002-12-23 11:07 51°25.456 3°12.958 5.7 284 7.1 101120 94
2002-12-23 11:08 51°25.41 3°12.604 5.8 281 7.1 101110 94
2002-12-23 11:09 51°25.365 3°12.247 6.5 284 7.1 101110 94
2002-12-23 11:10 51°25.321 3°11.882 6.5 283 7.1 101110 94
2002-12-23 11:11 51°25.277 3°11.531 6.5 275 7.1 101110 94
2002-12-23 11:12 51°25.23 3°11.168 6.7 278 7 101110 94
2002-12-23 11:13 51°25.183 3°10.821 6.4 277 6.9 101110 94
2002-12-23 11:14 51°25.132 3°10.472 6.2 281 6.9 101100 94
2002-12-23 11:15 51°25.085 3°10.125 7.3 281 6.9 101100 94
2002-12-23 11:16 51°25.044 3°9.778 6.4 276 6.9 101100 94
2002-12-23 11:17 51°24.987 3°9.437 6.5 276 6.9 101100 94
2002-12-23 11:18 51°24.945 3°9.088 5.9 269 6.8 101100 94
2002-12-23 11:19 51°24.896 3°8.729 6.3 267 6.8 101100 94
2002-12-23 11:20 51°24.919 3°8.382 4.8 260 6.7 101100 94
2002-12-23 11:21 51°24.971 3°8.038 4 260 6.7 101100 94
2002-12-23 11:22 51°25.071 3°7.728 3.6 268 6.7 101100 94
2002-12-23 11:23 51°25.179 3°7.432 2.7 246 6.7 101110 94
2002-12-23 11:24 51°25.358 3°7.266 4.3 203 6.7 101100 94
2002-12-23 11:25 51°25.559 3°7.312 6.6 197 6.6 101100 94
2002-12-23 11:26 51°25.731 3°7.493 7.3 192 6.5 101090 94
2002-12-23 11:27 51°25.895 3°7.683 7 190 6.6 101080 94
2002-12-23 11:28 51°26.067 3°7.864 7.4 194 6.7 101070 94
2002-12-23 11:29 51°26.237 3°8.049 8.4 197 6.8 101070 94
2002-12-23 11:30 51°26.382 3°8.232 6.2 181 6.8 101070 94
2002-12-23 11:31 51°26.446 3°8.32 5.9 179 6.8 101070 94
2002-12-23 11:32 51°26.438 3°8.346 4.4 189 6.8 101070 94
2002-12-23 11:33 51°26.421 3°8.34 4.6 194 6.9 101070 94
2002-12-23 11:34 51°26.405 3°8.341 4.2 180 6.9 101070 94
2002-12-23 11:35 51°26.39 3°8.344 5.1 159 6.9 101070 94
2002-12-23 11:36 51°26.398 3°8.363 4.3 129 6.8 101060 94
2002-12-23 11:37 51°26.441 3°8.288 1.3 292 6.8 101070 94
2002-12-23 11:38 51°26.484 3°8.085 0.3 329 6.9 101070 94
2002-12-23 11:39 51°26.557 3°7.858 0.1 279 7 101080 94
2002-12-23 11:40 51°26.645 3°7.641 0.5 279 7 101070 94
2002-12-23 11:41 51°26.732 3°7.419 0.1 279 7.1 101070 94
2002-12-23 11:42 51°26.819 3°7.198 0.5 284 7.1 101070 94
2002-12-23 11:43 51°26.904 3°6.973 0.4 278 7.1 101070 94
2002-12-23 11:44 51°26.992 3°6.746 0.1 277 7.1 101070 94
2002-12-23 11:45 51°27.08 3°6.523 0.6 276 7.1 101060 94
2002-12-23 11:46 51°27.166 3°6.297 0.7 275 7.1 101060 94
2002-12-23 11:47 51°27.251 3°6.07 0.4 263 7.1 101060 94
2002-12-23 11:48 51°27.339 3°5.843 0.8 342 7.1 101060 94
2002-12-23 11:49 51°27.426 3°5.615 0.4 257 7 101060 94
2002-12-23 11:50 51°27.514 3°5.384 0.8 254 7 101050 94
2002-12-23 11:51 51°27.603 3°5.153 0.7 249 7 101050 94
2002-12-23 11:52 51°27.691 3°4.922 0.6 246 7 101050 94
2002-12-23 11:53 51°27.779 3°4.691 0.4 244 7 101040 94
2002-12-23 11:54 51°27.867 3°4.462 1 256 7 101040 94
2002-12-23 11:55 51°27.955 3°4.237 0.9 242 7 101050 94
2002-12-23 11:56 51°28.041 3°4.02 0.5 241 7 101040 94
2002-12-23 11:57 51°28.123 3°3.798 0.8 222 7 101040 94
2002-12-23 11:58 51°28.206 3°3.62 1.8 65 7 101040 94
2002-12-23 11:59 51°28.245 3°3.501 3.2 69 7 101030 94
2002-12-23 12:00 51°28.264 3°3.437 4.3 99 7 101020 94
2002-12-23 12:01 51°28.272 3°3.405 3.9 104 7 101020 94
2002-12-23 12:02 51°28.275 3°3.378 4.8 102 7 101020 94
2002-12-23 12:03 51°28.276 3°3.352 4.5 103 6.9 101030 94
2002-12-23 12:04 51°28.287 3°3.328 4 113 6.9 101030 94
2002-12-23 12:05 51°28.308 3°3.308 4.2 119 7 101030 94
2002-12-23 12:06 51°28.335 3°3.292 4.2 125 7 101030 94
2002-12-23 12:07 51°28.366 3°3.28 4.3 127 6.9 101030 94
2002-12-23 12:08 51°28.425 3°3.218 0.7 62 6.9 101030 94
2002-12-23 12:09 51°28.398 3°2.918 6.5 279 6.9 101030 94
2002-12-23 12:10 51°28.325 3°2.545 6.2 275 6.9 101010 94
2002-12-23 12:11 51°28.256 3°2.165 5.9 281 6.9 101010 94
2002-12-23 12:12 51°28.19 3°1.783 5.7 280 6.9 101010 94
2002-12-23 12:13 51°28.122 3°1.403 6.5 282 7 101010 94
2002-12-23 12:14 51°28.054 3°1.023 6.4 279 6.9 101010 94
2002-12-23 12:15 51°27.985 3°0.648 6.4 279 6.9 101000 94
2002-12-23 12:16 51°27.92 3°0.275 6 282 7 101000 94
2002-12-23 12:17 51°27.857 2°59.902 5.9 279 6.9 100990 94
2002-12-23 12:18 51°27.788 2°59.53 5.8 278 6.9 100990 94
2002-12-23 12:19 51°27.72 2°59.156 6 281 6.9 100970 94
2002-12-23 12:20 51°27.653 2°58.782 5.8 279 6.9 100980 94
2002-12-23 12:21 51°27.586 2°58.41 6 280 6.9 100970 94
2002-12-23 12:22 51°27.519 2°58.037 6.5 285 6.8 100960 94
2002-12-23 12:23 51°27.453 2°57.659 5.8 279 6.8 100970 94
2002-12-23 12:24 51°27.386 2°57.281 5.9 273 6.8 100970 94
2002-12-23 12:25 51°27.32 2°56.901 6.3 276 6.8 100960 94
2002-12-23 12:26 51°27.254 2°56.522 6.1 275 6.8 100960 94
2002-12-23 12:27 51°27.188 2°56.141 5.8 272 6.8 100960 94
2002-12-23 12:28 51°27.124 2°55.757 6 275 6.9 100960 93
2002-12-23 12:29 51°27.06 2°55.376 5.9 273 6.9 100950 93
2002-12-23 12:30 51°26.994 2°54.998 5.9 270 6.9 100960 93
2002-12-23 12:31 51°26.933 2°54.62 5.8 270 6.9 100960 93
2002-12-23 12:32 51°26.872 2°54.245 6.4 268 6.9 100960 93
2002-12-23 12:33 51°26.811 2°53.871 6.5 277 6.9 100950 93
2002-12-23 12:34 51°26.755 2°53.495 5.9 271 7 100950 93
2002-12-23 12:35 51°26.701 2°53.122 6.7 276 7.1 100960 93
2002-12-23 12:36 51°26.647 2°52.75 5.9 273 7.1 100950 93
2002-12-23 12:37 51°26.594 2°52.381 6.9 279 7.1 100940 93
2002-12-23 12:38 51°26.542 2°52.013 6.7 274 7.2 100950 93
2002-12-23 12:39 51°26.489 2°51.653 7.1 283 7.3 100940 93
2002-12-23 12:40 51°26.436 2°51.283 6.6 283 7.3 100940 93
2002-12-23 12:41 51°26.385 2°50.927 6.6 286 7.3 100930 93
2002-12-23 12:42 51°26.327 2°50.573 6.3 289 7.4 100920 93
2002-12-23 12:43 51°26.27 2°50.216 6.6 291 7.3 100920 93
2002-12-23 12:44 51°26.213 2°49.859 5.9 290 7.3 100920 93
2002-12-23 12:45 51°26.157 2°49.503 6.8 287 7.4 100920 93
2002-12-23 12:46 51°26.102 2°49.146 6.4 293 7.4 100910 93
2002-12-23 12:47 51°26.06 2°48.871 1.1 315 7.4 100900 93
2002-12-23 12:48 51°26.03 2°48.702 1.5 338 7.4 100900 93
2002-12-23 12:49 51°26.023 2°48.586 4.7 13 7.5 100900 93
2002-12-23 12:50 51°26.026 2°48.547 6.3 62 7.6 100900 93
2002-12-23 12:51 51°26.025 2°48.547 6.4 65 7.7 100910 93
2002-12-23 12:52 51°26.027 2°48.545 5.7 71 7.6 100900 92
2002-12-23 12:53 51°26.032 2°48.541 6.3 78 7.6 100890 92
2002-12-23 12:54 51°26.037 2°48.538 6.1 80 7.5 100900 92
2002-12-23 12:55 51°26.057 2°48.515 2.9 316 7.5 100900 92
2002-12-23 12:56 51°25.992 2°48.307 11.1 277 7.5 100900 92
2002-12-23 12:57 51°25.786 2°48.189 12.6 271 7.5 100870 92
2002-12-23 12:58 51°25.573 2°48.044 11.5 272 7.5 100880 92
2002-12-23 12:59 51°25.376 2°47.871 10.6 276 7.4 100870 92
2002-12-23 13:00 51°25.167 2°47.671 10.8 274 7.5 100860 92
2002-12-23 13:01 51°24.977 2°47.493 10.7 273 7.5 100870 92
2002-12-23 13:02 51°24.793 2°47.302 10.1 280 7.5 100860 92
2002-12-23 13:03 51°24.645 2°47.04 9.4 281 7.5 100860 92
2002-12-23 13:04 51°24.499 2°46.774 9.2 281 7.4 100860 92
2002-12-23 13:05 51°24.354 2°46.51 9.5 280 7.5 100850 92
2002-12-23 13:06 51°24.207 2°46.251 9.4 278 7.5 100850 92
2002-12-23 13:07 51°24.06 2°45.992 10.1 283 7.5 100850 92
2002-12-23 13:08 51°23.928 2°45.711 10.1 280 7.6 100850 92
2002-12-23 13:09 51°23.798 2°45.43 10.3 282 7.6 100850 92
2002-12-23 13:10 51°23.667 2°45.152 10.4 280 7.7 100860 92
2002-12-23 13:11 51°23.534 2°44.874 10 276 7.7 100850 92
2002-12-23 13:12 51°23.4 2°44.599 9.9 278 7.8 100850 92
2002-12-23 13:13 51°23.268 2°44.323 9.1 278 7.7 100850 92
2002-12-23 13:14 51°23.138 2°44.06 10 281 7.7 100840 92
2002-12-23 13:15 51°23.003 2°43.786 9.6 279 7.7 100830 92
2002-12-23 13:16 51°22.866 2°43.504 9.8 281 7.6 100830 92
2002-12-23 13:17 51°22.738 2°43.242 10.2 278 7.6 100830 92
2002-12-23 13:18 51°22.592 2°42.978 10.9 281 7.7 100820 92
2002-12-23 13:19 51°22.448 2°42.726 10.9 280 7.8 100830 92
2002-12-23 13:20 51°22.312 2°42.482 10.2 283 7.8 100820 92
2002-12-23 13:21 51°22.168 2°42.215 9.9 277 7.8 100810 92
2002-12-23 13:22 51°22.027 2°41.96 10 281 7.8 100810 92
2002-12-23 13:23 51°21.886 2°41.705 10.8 281 7.8 100810 92
2002-12-23 13:24 51°21.746 2°41.448 10.7 277 7.8 100810 92
2002-12-23 13:25 51°21.605 2°41.195 10.3 279 7.8 100810 92
2002-12-23 13:26 51°21.479 2°40.927 8.7 292 7.9 100810 92
2002-12-23 13:27 51°21.435 2°40.598 7.8 295 7.9 100820 92
2002-12-23 13:28 51°21.4 2°40.263 7.9 290 7.9 100820 92
2002-12-23 13:29 51°21.352 2°39.94 7.8 291 7.9 100810 92
2002-12-23 13:30 51°21.301 2°39.613 8 291 7.9 100800 92
2002-12-23 13:31 51°21.249 2°39.286 8.3 291 8 100800 92
2002-12-23 13:32 51°21.198 2°38.953 7.8 285 8 100800 92
2002-12-23 13:33 51°21.146 2°38.628 7.9 289 8 100800 92
2002-12-23 13:34 51°21.093 2°38.303 8.2 289 8 100800 92
2002-12-23 13:35 51°21.042 2°37.983 8.4 293 8 100800 92
2002-12-23 13:36 51°20.99 2°37.654 8.3 291 8 100790 92
2002-12-23 13:37 51°20.939 2°37.331 8.6 291 8.1 100790 92
2002-12-23 13:38 51°20.887 2°37.008 7.9 291 8.1 100780 92
2002-12-23 13:39 51°20.837 2°36.697 8.3 292 8.1 100790 92
2002-12-23 13:40 51°20.784 2°36.365 7.9 294 8.1 100790 92
2002-12-23 13:41 51°20.733 2°36.048 7.9 293 8 100780 92
2002-12-23 13:42 51°20.683 2°35.741 7.6 289 8 100790 92
2002-12-23 13:43 51°20.639 2°35.406 7 290 8 100780 92
2002-12-23 13:44 51°20.599 2°35.091 7.6 290 8 100780 92
2002-12-23 13:45 51°20.558 2°34.751 7 287 8 100780 92
2002-12-23 13:46 51°20.518 2°34.426 6.9 292 8 100780 92
2002-12-23 13:47 51°20.477 2°34.088 6.7 287 8 100770 93
2002-12-23 13:48 51°20.438 2°33.753 6.6 283 7.9 100770 93
2002-12-23 13:49 51°20.396 2°33.417 7.1 286 7.9 100770 93
2002-12-23 13:50 51°20.357 2°33.094 6.7 291 7.9 100770 93
2002-12-23 13:51 51°20.314 2°32.75 6.9 286 8 100760 93
2002-12-23 13:52 51°20.275 2°32.423 7.5 285 8 100760 93
2002-12-23 13:53 51°20.23 2°32.092 7.7 285 8.1 100760 93
2002-12-23 13:54 51°20.181 2°31.761 7.4 292 8.2 100760 93
2002-12-23 13:55 51°20.135 2°31.44 8.5 298 8.2 100760 93
2002-12-23 13:56 51°20.091 2°31.118 9 297 8.3 100760 94
2002-12-23 13:57 51°20.059 2°30.791 6.4 302 8.3 100760 94
2002-12-23 13:58 51°20.041 2°30.479 6.4 298 8.4 100750 94
2002-12-23 13:59 51°20.034 2°30.274 3.7 357 8.4 100760 94
2002-12-23 14:00 51°20.05 2°30.152 4.6 4 8.5 100750 94
2002-12-23 14:01 51°20.059 2°30.042 1.6 340 8.5 100750 94
2002-12-23 14:02 51°20.066 2°29.997 6.2 14 8.5 100740 94
2002-12-23 14:03 51°20.086 2°30.001 7.9 14 8.5 100750 94
2002-12-23 14:04 51°20.102 2°30.021 6.8 1 8.5 100740 94
2002-12-23 14:05 51°20.116 2°30.055 1.8 344 8.5 100740 94
2002-12-23 14:06 51°20.124 2°30.084 2.3 322 8.5 100740 94
2002-12-23 14:07 51°20.117 2°30.1 10.1 299 8.5 100740 94
2002-12-23 14:08 51°20 2°30.105 14.6 256 8.5 100730 94
2002-12-23 14:09 51°19.832 2°30.349 15.8 234 8.5 100720 94
2002-12-23 14:10 51°19.68 2°30.655 15.6 238 8.5 100710 94
2002-12-23 14:11 51°19.52 2°30.949 16.6 236 8.5 100710 94
2002-12-23 14:12 51°19.369 2°31.232 16.1 236 8.5 100710 94
2002-12-23 14:13 51°19.218 2°31.518 15.8 238 8.5 100710 94
2002-12-23 14:14 51°19.064 2°31.795 15.3 238 8.5 100700 94
2002-12-23 14:15 51°18.92 2°32.066 15.4 242 8.5 100710 94
2002-12-23 14:16 51°18.767 2°32.356 15.5 241 8.6 100690 95
2002-12-23 14:17 51°18.615 2°32.635 15.1 239 8.6 100700 95
2002-12-23 14:18 51°18.466 2°32.919 15.5 243 8.6 100700 95
2002-12-23 14:19 51°18.311 2°33.204 15.8 239 8.6 100700 95
2002-12-23 14:20 51°18.16 2°33.483 16.1 242 8.6 100690 95
2002-12-23 14:21 51°18.006 2°33.775 15.8 238 8.5 100710 95
2002-12-23 14:22 51°17.854 2°34.056 15.6 241 8.5 100710 95
2002-12-23 14:23 51°17.704 2°34.34 15 236 8.5 100690 95
2002-12-23 14:24 51°17.566 2°34.665 15.3 235 8.5 100700 95
2002-12-23 14:25 51°17.431 2°34.98 15.2 239 8.4 100700 95
2002-12-23 14:26 51°17.291 2°35.298 15.3 236 8.4 100700 95
2002-12-23 14:28 51°17.139 2°35.637 15.4 233 8.4 100700 95
2002-12-23 14:29 51°16.997 2°35.952 14.4 230 8.3 100710 95
2002-12-23 14:29 51°16.866 2°36.256 14.4 234 8.3 100700 95
2002-12-23 14:31 51°16.782 2°36.547 11.5 235 8.3 100700 95
2002-12-23 14:31 51°16.721 2°36.667 9.9 271 8.3 100710 95
2002-12-23 14:33 51°16.663 2°36.72 10.8 274 8.3 100710 95
2002-12-23 14:34 51°16.618 2°36.737 8.4 295 8.3 100700 95
2002-12-23 14:35 51°16.614 2°36.755 6.7 296 8.3 100710 95
2002-12-23 14:35 51°16.621 2°36.776 6.6 295 8.3 100720 95
2002-12-23 14:36 51°16.63 2°36.801 7.8 295 8.3 100720 95
2002-12-23 14:38 51°16.641 2°36.828 8.1 295 8.3 100720 95
2002-12-23 14:39 51°16.654 2°36.855 6.8 300 8.3 100710 95
2002-12-23 14:39 51°16.668 2°36.882 5.8 302 8.3 100710 95
2002-12-23 14:41 51°16.653 2°36.908 10.7 273 8.2 100710 95
2002-12-23 14:41 51°16.517 2°37.032 13.9 253 8.2 100680 95
2002-12-23 14:43 51°16.324 2°37.2 14 258 8.2 100680 95
2002-12-23 14:44 51°16.128 2°37.356 14.8 257 8.2 100670 95
2002-12-23 14:45 51°15.931 2°37.516 14 255 8.2 100670 95
2002-12-23 14:45 51°15.732 2°37.67 13.8 253 8.2 100670 95
2002-12-23 14:47 51°15.523 2°37.825 14.4 252 8.1 100670 95
2002-12-23 14:48 51°15.318 2°37.981 16.3 253 8.2 100660 95
2002-12-23 14:49 51°15.112 2°38.136 15 250 8.2 100660 95
2002-12-23 14:50 51°14.908 2°38.301 15.3 248 8.3 100660 95
2002-12-23 14:51 51°14.708 2°38.468 16.7 253 8.3 100670 95
2002-12-23 14:52 51°14.506 2°38.626 16.2 253 8.3 100660 95
2002-12-23 14:53 51°14.305 2°38.787 15.6 256 8.3 100660 95
2002-12-23 14:54 51°14.104 2°38.949 15 251 8.3 100660 95
2002-12-23 14:55 51°13.902 2°39.118 14.7 247 8.3 100680 95
2002-12-23 14:56 51°13.711 2°39.315 15.5 244 8.3 100680 95
2002-12-23 14:57 51°13.521 2°39.518 15.2 246 8.3 100680 95
2002-12-23 14:58 51°13.329 2°39.716 15.2 245 8.3 100670 95
2002-12-23 14:59 51°13.14 2°39.919 15.2 245 8.4 100680 95
2002-12-23 15:00 51°12.954 2°40.125 14.4 248 8.4 100680 95
2002-12-23 15:01 51°12.764 2°40.316 14.2 246 8.5 100670 95
2002-12-23 15:01 51°12.588 2°40.529 15.1 245 8.5 100670 95
2002-12-23 15:03 51°12.405 2°40.752 15.2 245 8.5 100660 95
2002-12-23 15:04 51°12.226 2°40.968 14.3 250 8.5 100660 95
2002-12-23 15:05 51°12.021 2°41.095 14.3 256 8.6 100650 95
2002-12-23 15:05 51°11.82 2°41.206 15.9 253 8.6 100660 95
2002-12-23 15:07 51°11.604 2°41.349 15.9 255 8.7 100670 95
2002-12-23 15:08 51°11.399 2°41.478 16.3 253 8.8 100660 95
2002-12-23 15:09 51°11.214 2°41.598 14.9 255 8.8 100660 95
2002-12-23 15:10 51°11.113 2°41.782 13.5 135 8.9 100670 95
2002-12-23 15:11 51°11.11 2°41.975 11 200 8.9 100650 95
2002-12-23 15:12 51°11.135 2°42.074 8.6 140 8.9 100680 95
2002-12-23 15:12 51°11.134 2°42.086 8.5 126 8.9 100690 95
2002-12-23 15:14 51°11.139 2°42.104 7.2 122 8.9 100690 94
2002-12-23 15:15 51°11.149 2°42.123 7.3 118 8.9 100700 94
2002-12-23 15:15 51°11.161 2°42.143 8.7 121 8.9 100700 94
2002-12-23 15:17 51°11.196 2°42.179 7.4 148 8.9 100680 94
2002-12-23 15:18 51°11.313 2°42.444 12.7 200 8.9 100660 94
2002-12-23 15:19 51°11.396 2°42.813 14.8 206 9 100640 94
2002-12-23 15:20 51°11.441 2°43.215 15 207 9 100640 94
2002-12-23 15:20 51°11.481 2°43.596 15.6 207 9.1 100640 94
2002-12-23 15:22 51°11.528 2°44.004 14.8 205 9.2 100650 94
2002-12-23 15:23 51°11.575 2°44.397 14.3 203 9.2 100650 94
2002-12-23 15:24 51°11.625 2°44.788 14.9 201 9.3 100650 93
2002-12-23 15:25 51°11.681 2°45.177 13.9 202 9.4 100650 93
2002-12-23 15:26 51°11.742 2°45.564 15.5 202 9.4 100660 93
2002-12-23 15:27 51°11.811 2°45.946 14.2 201 9.5 100640 93
2002-12-23 15:28 51°11.886 2°46.323 14.2 195 9.6 100650 92
2002-12-23 15:29 51°11.96 2°46.704 16 196 9.6 100650 92
2002-12-23 15:30 51°12.039 2°47.084 14.8 202 9.7 100640 92
2002-12-23 15:31 51°12.117 2°47.466 15.3 200 9.8 100640 91
2002-12-23 15:32 51°12.218 2°47.832 14.3 196 9.8 100640 91
2002-12-23 15:32 51°12.334 2°48.174 13.7 201 9.8 100630 90
2002-12-23 15:34 51°12.456 2°48.542 14.3 201 9.7 100640 90
2002-12-23 15:35 51°12.574 2°48.898 14.3 199 9.7 100640 90
2002-12-23 15:36 51°12.694 2°49.253 13.8 201 9.6 100640 90
2002-12-23 15:37 51°12.811 2°49.61 14.2 201 9.7 100640 90
2002-12-23 15:38 51°12.928 2°49.969 13.8 197 9.7 100650 89
2002-12-23 15:39 51°13.047 2°50.325 14.2 202 9.7 100650 89
2002-12-23 15:40 51°13.165 2°50.682 13.3 198 9.8 100660 89
2002-12-23 15:40 51°13.279 2°51.024 14.9 198 9.8 100650 88
2002-12-23 15:42 51°13.403 2°51.389 12.2 199 9.8 100660 88
2002-12-23 15:43 51°13.527 2°51.739 12.9 204 9.8 100660 88
2002-12-23 15:44 51°13.651 2°52.088 11.5 200 9.9 100660 88
2002-12-23 15:45 51°13.777 2°52.438 12.5 196 9.9 100670 88
2002-12-23 15:46 51°13.901 2°52.79 13.7 201 9.9 100660 87
2002-12-23 15:47 51°14.025 2°53.141 13.7 199 10 100650 87
2002-12-23 15:48 51°14.153 2°53.487 11.6 200 10 100660 87
2002-12-23 15:49 51°14.277 2°53.829 12.5 198 10 100660 87
2002-12-23 15:50 51°14.39 2°54.172 11.6 208 10 100640 87
2002-12-23 15:51 51°14.449 2°54.519 15.1 215 10 100640 87
2002-12-23 15:52 51°14.418 2°54.861 15.1 228 10 100650 87
2002-12-23 15:52 51°14.324 2°55.133 13.4 234 10 100660 87
2002-12-23 15:54 51°14.186 2°55.367 14.6 241 10 100660 87
2002-12-23 15:55 51°14.046 2°55.475 12.7 244 10 100660 87
2002-12-23 15:56 51°13.929 2°55.553 9.6 253 10.1 100680 87